This demonstration page uses our WeatherBlox Daily Observations layout. Learn more.

Left ArrowRight Arrow

Hourly Observations for May 7, 2019

Temp ( °F °C ) Dew Point ( °F °C ) Humidity (%) Winds ( mph kmh ) Pressure ( in mb ) Visibility ( mi km ) Precip ( " mm )
12:52 am 00:52 Cloudy 55 12.8 44 6.7 67 67 NNE 8 13 30.11 1020 10 16 0.00 0.00
1:52 am 01:52 Cloudy 54 12.2 41 5 62 62 NNE 14 22 30.13 1020 10 16 0.00 0.00
2:52 am 02:52 Cloudy 51 10.6 38 3.3 61 61 NNE 10 17 30.13 1020 10 16 0.00 0.00
3:52 am 03:52 Cloudy 51 10.6 37 2.8 59 59 NNE 12 19 30.14 1021 10 16 0.00 0.00
4:52 am 04:52 Cloudy 50 10 37 2.8 61 61 N 13 20 30.15 1021 10 16 0.00 0.00
5:52 am 05:52 Cloudy 50 10 37 2.8 61 61 NNE 9 15 30.14 1021 10 16 0.00 0.00
6:52 am 06:52 Cloudy with Light Rain 50 10 38 3.3 63 63 NNE 14 22 30.16 1021 10 16 0.00 0.03
7:52 am 07:52 Cloudy with Light Rain 49 9.4 39 3.9 69 69 NE 7 11 30.18 1022 10 16 0.01 0.25
8:52 am 08:52 Cloudy with Light Rain 49 9.4 37 2.8 64 64 NNE 9 15 30.19 1022 10 16 0.00 0.03
9:07 am 09:07 Cloudy with Light Rain 49 9.4 37 2.8 64 64 NE 9 15 30.20 1023 10 16 0.00 0.03
9:52 am 09:52 Cloudy with Drizzle 49 9.4 38 3.3 66 66 NNE 6 9 30.20 1023 6 10 0.00 0.03
10:13 am 10:13 Cloudy with Light Rain 48 8.9 39 3.9 71 71 NE 7 11 30.21 1023 3 4 0.02 0.51
10:52 am 10:52 Cloudy with Light Rain 48 8.9 42 5.6 80 80 NE 8 13 30.19 1022 3 4 0.03 0.76
11:29 am 11:29 Cloudy with Light Rain 49 9.4 42 5.6 77 77 NNE 6 9 30.20 1023 3 4 0.01 0.25
11:52 am 11:52 Cloudy with Light Rain 49 9.4 43 6.1 80 80 N 7 11 30.20 1023 3 4 0.01 0.25
12:44 pm 12:44 Cloudy 51 10.6 44 6.7 77 77 NE 8 13 30.19 1022 7 11 0.02 0.51
12:52 pm 12:52 Cloudy 51 10.6 44 6.7 77 77 NNE 7 11 30.18 1022 7 11 0.02 0.51
1:27 pm 13:27 Cloudy 51 10.6 46 7.8 83 83 NE 7 11 30.18 1022 10 16 0.00 0.00
1:52 pm 13:52 Cloudy 52 11.1 47 8.3 83 83 VRB 7 11 30.15 1021 8 13 0.00 0.00
2:52 pm 14:52 Cloudy 54 12.2 48 8.9 80 80 ENE 9 15 30.14 1021 10 16 0.00 0.00
3:13 pm 15:13 Cloudy 55 12.8 48 8.9 77 77 E 12 19 30.13 1020 10 16 0.00 0.00
3:35 pm 15:35 Cloudy 56 13.3 49 9.4 77 77 E 8 13 30.13 1020 10 16 0.00 0.00
3:52 pm 15:52 Cloudy 56 13.3 48 8.9 75 75 ENE 9 15 30.12 1020 10 16 0.00 0.00
4:52 pm 16:52 Cloudy 58 14.4 48 8.9 70 70 E 16 26 30.09 1019 10 16 0.00 0.00
5:52 pm 17:52 Cloudy 59 15 48 8.9 67 67 E 8 13 30.07 1018 10 16 0.00 0.00
6:52 pm 18:52 Cloudy 59 15 48 8.9 67 67 E 7 11 30.04 1017 10 16 0.00 0.00
7:30 pm 19:30 Cloudy 59 15 48 8.9 67 67 E 14 22 30.03 1017 10 16 0.00 0.00
7:52 pm 19:52 Cloudy 58 14.4 49 9.4 72 72 ESE 15 24 30.04 1017 10 16 0.00 0.00
8:52 pm 20:52 Cloudy 57 13.9 49 9.4 74 74 E 12 19 30.03 1017 10 16 0.00 0.00
9:39 pm 21:39 Cloudy 57 13.9 49 9.4 74 74 ESE 13 20 30.03 1017 10 16 0.00 0.00
9:52 pm 21:52 Cloudy with Drizzle 56 13.3 49 9.4 77 77 ESE 12 19 30.02 1017 7 11 0.00 0.03
10:52 pm 22:52 Cloudy 56 13.3 50 10 81 81 ESE 14 22 30.00 1016 10 16 0.00 0.03
11:36 pm 23:36 Cloudy with Light Rain 55 12.8 50 10 83 83 ESE 14 22 29.98 1015 10 16 0.00 0.03
11:52 pm 23:52 Cloudy with Light Rain 55 12.8 51 10.6 87 87 SE 13 20 29.99 1016 6 10 0.00 0.03

Powered by AerisWeather